User: anonymous   Login
Location: Unspecified
(0.0000°N, 0.0000°E)
Time: 04:06:47
(UTC+00:00)
Language:

BEESAT - Orbit

View from above orbital plane
View from above orbital plane
View from above satellite
View from above satellite

Ground track
Ground track

The orbit data is extracted from the following two-line orbital elements,

1 35933U 09051C   24170.88303103  .00001180  00000-0  26271-3 0  9999
2 35933  98.4645  55.1360 0005085 339.8496  20.2501 14.58835037782877
Epoch (UTC): 18 June 2024 21:11:33
Eccentricity: 0.0005085
inclination: 98.4645°
perigee height: 693 km
apogee height: 700 km
right ascension of ascending node: 55.1360°
argument of perigee: 339.8496°
revolutions per day: 14.58835037
mean anomaly at epoch: 20.2501°
orbit number at epoch: 78287

The dashed part of the orbit path shows where the satellite is in the earth's shadow,  

DLR